AirNav   ProFlight Series 2 Aviation Headset
 
 778 users online  

FL92 L M Hughey Heliport
Tampa, Florida, USA

GOING TO TAMPA?


FAA INFORMATION EFFECTIVE 18 JUNE 2020

Location

FAA Identifier: FL92
Lat/Long: 27-56-32.8500N 082-32-09.3200W
27-56.547500N 082-32.155333W
27.9424583,-82.5359222
(estimated)
Elevation: 27 ft. / 8 m (estimated)
Variation: 02W (1985)
From city: 2 miles W of TAMPA, FL
Time zone: UTC -4 (UTC -5 during Standard Time)
Zip code: 33609

Heliport Operations

Heliport use: Private use. Permission required prior to landing
Activation date: 12/1975
Control tower: no
ARTCC: MIAMI CENTER
FSS: SAINT PETERSBURG FLIGHT SERVICE STATION
Attendance: UNATNDD
Wind indicator: yes
Segmented circle: no

Heliport Communications

WX ASOS at TPA (2.0 nm N): PHONE 813-873-7228
WX AWOS-3 at TPF (5 nm E): 118.925 (813-251-6824)
WX ASOS at PIE (8 nm W): PHONE 727-531-3456
WX AWOS-3 at VDF (11 nm NE): 121.125 (813-630-0924)
WX ASOS at SPG (12 nm SW): 118.875 (727-821-4334)
WX AWOS-3P at CLW (12 nm W): 119.225 (727-449-2184)

Nearby radio navigation aids

VOR radial/distance  VOR name  Freq  Var
PIEr080/8.1ST PETERSBURG VORTAC116.4005W
LALr264/27.8LAKELAND VORTAC116.0001E
SRQr008/32.2SARASOTA VOR/DME117.0005W

 
NDB name  Hdg/Dist  Freq  Var  ID
COSME189/8.636805WTP - .--.
CAPOK115/9.436005WPI .--. ..

Heliport Services

Runway Information

Helipad H1

Dimensions: 50 x 50 ft. / 15 x 15 m
Surface: concrete
Latitude: 27-56.547500N
Longitude: 082-32.155333W
Elevation: 27.0 ft.
Traffic pattern: leftleft

Heliport Ownership and Management from official FAA records

Ownership: Privately-owned
Owner: L M HUGHEY
205 S. HOOVER ST
TAMPA, FL 33609
Phone 813-286-2323
Manager: RON HAMPTON
205 S. HOOVER ST SUITE 400
TAMPA, FL 33609
Phone 813-286-2323

Heliport Operational Statistics

Aircraft based on the field: 1
Helicopters: 1
    

Additional Remarks

FOR CD CTC TAMPA APCH AT 813-878-2528

Instrument Procedures

There are no published instrument procedures at FL92.

Some nearby airports with instrument procedures:

KTPA - Tampa International Airport (2 nm N)
KTPF - Peter O Knight Airport (5 nm E)
KMCF - MacDill Air Force Base (6 nm S)
KPIE - St Pete-Clearwater International Airport (8 nm W)
KVDF - Tampa Executive Airport (11 nm NE)
KSPG - Albert Whitted Airport (12 nm SW)
KCLW - Clearwater Air Park (12 nm W)
 
Loc | Ops | Rwys | IFR | FBO | Links
Com | Nav | Svcs | Stats | Notes


 
Area around FL92 (L M Hughey Heliport)
 
Road maps at: MapQuest Bing Google
 
Aerial photo
No photo
 
Sectional chart

 
Airport distance calculator
Flying to L M Hughey Heliport? Find the distance to fly.

From to FL92

Sunrise and sunset
Times for 06-Jul-2020
 Local
(UTC-4)
 Zulu
(UTC)
Morning civil twilight06:1410:14
Sunrise06:4110:41
Sunset20:2900:29
Evening civil twilight20:5600:56

Current date and time
Zulu (UTC)  07-Jul-2020 03:24:25
Local (UTC-4)  06-Jul-2020 23:24:25
 
METAR
KTPA 070253Z 10003KT 10SM FEW020 SCT033 BKN170 OVC250 26/22 A3008 RMK AO2 RAE04 SLP185 CB DSNT W-NW P0001 60015 T02560217 52014
KTPF 
5nm E 
070255Z AUTO 16003KT 10SM BKN095 OVC120 25/25 A3008 RMK AO2 P0017
KMCF 
6nm S 
070256Z AUTO 10004KT 10SM CLR 25/23 A3007 RMK AO2 LTG DSNT S SLP186 60011 T02520230 52010 FZRANO $
KPIE 
8nm W 
070253Z 12003KT 10SM VCTS CLR 27/25 A3007 RMK AO2 SLP182 60057 T02670250 53012
KVDF 
11nm NE 
070255Z AUTO 00000KT 10SM SCT090 SCT110 25/24 A3008 RMK AO2
KSPG 
12nm SW 
070253Z AUTO 12008KT 10SM FEW055 28/25 A3006 RMK AO2 SLP178 60000 T02780250 53013 $
KCLW 
12nm W 
070255Z AUTO 15004KT 10SM SCT032 SCT085 27/23 A3007 RMK AO2 PWINO
KPCM 
20nm E 
070255Z AUTO 00000KT 10SM CLR 25/25 A3010 RMK AO2
TAF
KTPA 062113Z 0621/0724 22011KT P6SM VCSH SCT040 BKN250 TEMPO 0621/0622 3SM SHRA FM070100 22005KT P6SM SCT040 SCT250 FM071200 22005KT P6SM VCSH SCT020 SCT250
KPIE 
8nm W 
061720Z 0618/0718 22011KT P6SM VCTS SCT035CB SCT250 FM062100 24010KT P6SM VCSH SCT030 BKN250 FM070100 21005KT P6SM SCT040 SCT250 FM071000 21005KT P6SM SCT020 SCT250
NOTAMs
Click for the latest NOTAMs
NOTAMs are issued by the DoD/FAA and will open in a separate window not controlled by AirNav.

 

 
 

Would you like to see your business listed on this page?

 If your business provides an interesting product or service to pilots, flight crews, aircraft, or users of the L M Hughey Heliport, you should consider listing it here.  To start the listing process, click on the button below
 
Add a business
 

Other Pages about L M Hughey Heliport

Update a link
 
Copyright © AirNav, LLC. All rights reserved. Privacy Policy  Contact